Ionia, MI

5:26 PM EDT on March 28, 2017 (GMT -0400)
Ionia

Weather History for KY70 - February, 2013

Change the Weather History Date:

Thursday, February 7, 2013

  Actual Average (KGRR) Record (KGRR)
Temperature  
Mean Temperature 33 °F -  
Max Temperature 37 °F 28 °F 52 °F (2009)
Min Temperature 29 °F 12 °F -15 °F (1899)
Degree Days  
Heating Degree Days 32    
Moisture  
Dew Point 24 °F    
Average Humidity 70    
Maximum Humidity 89    
Minimum Humidity 60    
Precipitation  
Precipitation 0.04 in - - ()
Sea Level Pressure  
Sea Level Pressure 30.05 in    
Wind  
Wind Speed 8 mph (ESE)    
Max Wind Speed 15 mph    
Max Gust Speed 20 mph    
Visibility 7 miles    
Events Snow    
Averages and records for this station are not official NWS values.
T = Trace of Precipitation, MM = Missing Value Source: NWS Daily Summary

Daily Weather History Graph

Daily Weather History Graph

Search for Another Location

Airport or City:

Trip Planner

Search our weather history database for the weather conditions in past years. The results will help you decide how hot, cold, wet, or windy it might be!

Date:

Astronomy

Feb. 07, 2013 Rise Set
Actual Time 7:47 AM EST 6:01 PM EST
Civil Twilight 7:18 AM EST 6:31 PM EST
Nautical Twilight 6:44 AM EST 7:04 PM EST
Astronomical Twilight 6:11 AM EST 7:37 PM EST
Moon 5:29 AM EST (2/7) 3:22 PM EST (2/7)
Length of Visible Light 11h 12m
Length of Day
10h 13m
Waning Crescent, 9% of the Moon is Illuminated
Feb 7
Waning Crescent
Feb 10
New
Feb 17
First Quarter
Feb 25
Full
Mar 4
Last Quarter

Hourly Weather History & Observations

Time (EST) Temp. Windchill Dew Point Humidity Pressure Visibility Wind Dir Wind Speed Gust Speed Precip Events Conditions
12:14 AM 30.2 °F 21.9 °F 19.4 °F 64% 30.19 in 10.0 mi SSE 9.2 mph - N/A   Overcast
12:34 AM 30.0 °F 24.1 °F 19.6 °F 65% 30.19 in 10.0 mi SE 5.8 mph - N/A   Overcast
12:54 AM 30.0 °F 24.1 °F 19.2 °F 64% 30.20 in 10.0 mi SSE 5.8 mph - N/A   Overcast
1:34 AM 30.0 °F 23.2 °F 19.4 °F 65% 30.19 in 10.0 mi SE 6.9 mph - N/A   Overcast
1:54 AM 30.2 °F 24.3 °F 18.7 °F 62% 30.20 in 10.0 mi SE 5.8 mph - N/A   Overcast
2:13 AM 30.2 °F 25.4 °F 19.4 °F 64% 30.21 in 10.0 mi SE 4.6 mph - N/A   Overcast
2:34 AM 30.2 °F 23.4 °F 19.2 °F 64% 30.21 in 10.0 mi SE 6.9 mph - N/A   Overcast
2:53 AM 30.2 °F 22.6 °F 18.7 °F 62% 30.20 in 10.0 mi SE 8.1 mph - N/A   Overcast
3:14 AM 30.2 °F 22.6 °F 18.7 °F 62% 30.18 in 10.0 mi ESE 8.1 mph - N/A   Overcast
3:33 AM 30.2 °F 23.4 °F 18.0 °F 60% 30.18 in 10.0 mi ESE 6.9 mph - N/A   Overcast
3:54 AM 30.0 °F 24.1 °F 18.3 °F 62% 30.17 in 10.0 mi ESE 5.8 mph - N/A   Overcast
4:14 AM 30.0 °F 21.7 °F 18.1 °F 61% 30.16 in 10.0 mi ESE 9.2 mph - N/A   Overcast
4:34 AM 30.0 °F 22.4 °F 18.1 °F 61% 30.16 in 10.0 mi SE 8.1 mph - N/A   Overcast
4:53 AM 30.0 °F 21.7 °F 18.7 °F 63% 30.16 in 10.0 mi SE 9.2 mph - N/A   Overcast
5:14 AM 30.0 °F 22.4 °F 18.5 °F 62% 30.16 in 10.0 mi SE 8.1 mph - N/A   Overcast
5:33 AM 29.7 °F 21.3 °F 19.4 °F 66% 30.16 in 10.0 mi SSE 9.2 mph - N/A   Overcast
5:54 AM 29.7 °F 22.8 °F 19.4 °F 66% 30.15 in 10.0 mi SE 6.9 mph - N/A   Overcast
6:13 AM 29.8 °F 23.9 °F 19.4 °F 65% 30.15 in 10.0 mi SE 5.8 mph - N/A   Mostly Cloudy
6:34 AM 30.0 °F 21.1 °F 19.9 °F 66% 30.15 in 10.0 mi SSE 10.4 mph - N/A   Overcast
6:53 AM 30.2 °F 20.2 °F 20.1 °F 66% 30.14 in 10.0 mi SSE 12.7 mph - N/A   Overcast
7:14 AM 30.2 °F 20.2 °F 20.1 °F 66% 30.14 in 10.0 mi SSE 12.7 mph - N/A   Overcast
7:33 AM 30.2 °F 20.8 °F 20.3 °F 67% 30.14 in 10.0 mi SSE 11.5 mph - N/A   Overcast
7:54 AM 30.4 °F 21.0 °F 20.3 °F 66% 30.14 in 10.0 mi SSE 11.5 mph - N/A   Overcast
8:13 AM 30.6 °F 21.2 °F 20.3 °F 66% 30.14 in 10.0 mi SSE 11.5 mph - N/A   Overcast
8:34 AM 30.7 °F 21.4 °F 20.1 °F 65% 30.14 in 7.0 mi SSE 11.5 mph - N/A   Overcast
8:53 AM 30.9 °F 21.2 °F 20.3 °F 65% 30.14 in 7.0 mi SSE 12.7 mph - N/A   Overcast
9:14 AM 31.5 °F 23.5 °F 21.0 °F 65% 30.15 in 7.0 mi SSE 9.2 mph - N/A   Overcast
9:34 AM 31.6 °F 25.1 °F 21.0 °F 65% 30.14 in 7.0 mi SSE 6.9 mph - N/A   Overcast
9:54 AM 31.8 °F 23.9 °F 21.2 °F 65% 30.13 in 10.0 mi SE 9.2 mph - N/A   Overcast
10:14 AM 32.0 °F 24.2 °F 21.0 °F 64% 30.12 in 7.0 mi SE 9.2 mph - N/A   Overcast
10:34 AM 32.0 °F 24.2 °F 21.2 °F 64% 30.12 in 7.0 mi SE 9.2 mph - N/A   Overcast
10:54 AM 32.4 °F 24.6 °F 21.7 °F 65% 30.11 in 7.0 mi ESE 9.2 mph - N/A   Overcast
11:14 AM 32.9 °F 24.1 °F 22.3 °F 65% 30.10 in 7.0 mi SE 11.5 mph - N/A   Overcast
11:33 AM 33.6 °F 26.8 °F 22.8 °F 65% 30.10 in 7.0 mi SE 8.1 mph - N/A   Overcast
11:54 AM 34.3 °F 27.0 °F 23.2 °F 64% 30.09 in 10.0 mi SE 9.2 mph - N/A   Overcast
12:13 PM 34.9 °F 26.6 °F 23.2 °F 62% 30.09 in 7.0 mi SE 11.5 mph - N/A   Overcast
12:34 PM 35.1 °F 27.9 °F 23.7 °F 63% 30.07 in 7.0 mi SE 9.2 mph - N/A   Overcast
12:53 PM 36.0 °F 30.3 °F 24.4 °F 63% 30.06 in 7.0 mi ESE 6.9 mph - N/A   Overcast
1:14 PM 36.5 °F 29.7 °F 24.8 °F 63% 30.05 in 7.0 mi SE 9.2 mph - N/A   Overcast
1:33 PM 37.4 °F 30.8 °F 25.5 °F 62% 30.04 in 7.0 mi SE 9.2 mph - N/A   Overcast
1:54 PM 37.4 °F 30.8 °F 25.7 °F 63% 30.02 in 7.0 mi SE 9.2 mph - N/A   Overcast
2:14 PM 37.4 °F 33.8 °F 26.1 °F 64% 30.02 in 4.0 mi ESE 4.6 mph - N/A Snow Light Snow
2:34 PM 36.7 °F 30.5 °F 27.5 °F 69% 30.01 in 1.5 mi ESE 8.1 mph - N/A Snow Light Snow
2:54 PM 35.6 °F 30.7 °F 30.0 °F 80% 30.00 in 1.0 mi East 5.8 mph - N/A Snow Light Snow
3:13 PM 35.6 °F 31.7 °F 30.7 °F 82% 29.99 in 1.8 mi ENE 4.6 mph - N/A Snow Light Snow
3:34 PM 35.8 °F 30.1 °F 30.2 °F 80% 29.98 in 1.5 mi ENE 6.9 mph - N/A Snow Light Snow
3:53 PM 35.8 °F 29.4 °F 30.9 °F 82% 29.98 in 5.0 mi ENE 8.1 mph - N/A   Haze
4:13 PM 36.5 °F 29.7 °F 29.3 °F 75% 29.96 in 10.0 mi East 9.2 mph - N/A   Overcast
4:34 PM 36.7 °F 30.5 °F 29.3 °F 75% 29.96 in 10.0 mi East 8.1 mph - N/A   Overcast
4:53 PM 36.9 °F 30.1 °F 29.3 °F 74% 29.95 in 7.0 mi ENE 9.2 mph - N/A   Overcast
5:14 PM 36.9 °F 30.7 °F 29.1 °F 74% 29.93 in 7.0 mi ENE 8.1 mph - N/A   Overcast
5:33 PM 37.0 °F 31.0 °F 28.8 °F 72% 29.93 in 10.0 mi ENE 8.1 mph - N/A   Overcast
5:54 PM 37.0 °F 31.0 °F 28.4 °F 71% 29.92 in 10.0 mi ENE 8.1 mph - N/A   Overcast
6:34 PM 36.7 °F 29.4 °F 28.4 °F 72% 29.92 in 10.0 mi East 10.4 mph - N/A   Overcast
6:53 PM 36.7 °F 29.4 °F 28.0 °F 71% 29.91 in 10.0 mi East 10.4 mph - N/A   Overcast
7:14 PM 36.9 °F 29.6 °F 27.5 °F 69% 29.91 in 10.0 mi ENE 10.4 mph - N/A   Overcast
7:34 PM 36.9 °F 29.1 °F 27.3 °F 68% 29.90 in 10.0 mi ENE 11.5 mph 18.4 mph N/A   Overcast
7:54 PM 36.7 °F 28.9 °F 27.3 °F 69% 29.90 in 10.0 mi East 11.5 mph - N/A   Overcast
8:14 PM 36.5 °F 29.7 °F 27.5 °F 70% 29.89 in 10.0 mi ENE 9.2 mph - N/A   Overcast
8:34 PM 36.5 °F 31.0 °F 27.9 °F 71% 29.90 in 7.0 mi East 6.9 mph - N/A Snow Light Snow
8:54 PM 35.8 °F 28.8 °F 29.1 °F 77% 29.89 in 1.5 mi East 9.2 mph - N/A Snow Light Snow
9:14 PM 34.7 °F 26.9 °F 30.7 °F 85% 29.90 in 0.8 mi East 10.4 mph - N/A Snow Snow
9:34 PM 34.0 °F 26.0 °F 30.6 °F 87% 29.91 in 0.5 mi East 10.4 mph - 0.01 in Snow Snow
9:54 PM 33.8 °F 27.7 °F 30.6 °F 88% 29.90 in 0.5 mi East 6.9 mph - 0.02 in Snow Heavy Snow
10:14 PM 33.8 °F 26.4 °F 30.7 °F 89% 29.89 in 0.5 mi East 9.2 mph - 0.01 in Snow Snow
10:34 PM 33.8 °F 26.4 °F 30.7 °F 89% 29.89 in 0.8 mi East 9.2 mph - 0.02 in Snow Snow
10:54 PM 33.1 °F 23.0 °F 30.2 °F 89% 29.88 in 0.8 mi ENE 15.0 mph 19.6 mph 0.02 in Snow Snow
11:14 PM 32.9 °F 24.7 °F 29.8 °F 88% 29.87 in 0.8 mi ENE 10.4 mph - N/A Snow Snow
11:34 PM 32.2 °F 22.7 °F 29.1 °F 88% 29.85 in 0.8 mi ENE 12.7 mph 18.4 mph N/A Snow Snow
11:54 PM 32.0 °F 23.6 °F 28.8 °F 88% 29.85 in 1.2 mi ENE 10.4 mph - N/A Snow Light Snow